Terug naar catalogus

DELTA 1 DEB

LostUNKNOWN
NORAD 27480·DEBRIS·🇺🇸 United States

Gelanceerd Jul 4, 1968 vanaf Vandenberg Space Force Base

Loading…

Volgende Passages (komende 24 uur)

TLE

VerouderdSource: Space-Track

Epoch: Jan 7, 2023, 03:20 UTC

1 27480U 68055H   23007.13932675 -.00000854  00000-0 -20629-1 0  9992
2 27480 121.2687 154.1881 1849911 194.4239 159.5833  9.42070872720678

Volg DELTA 1 DEB in realtime met AllMySat

Download on the App Store